Location: Marcé
(47.5801°N, 0.3280°W)
Time: 12:15:17
(UTC+01:00)

Explorer 7 - Pass Details

Date: 13 December 2021
Orbit: 483 x 674 km, 50.3° (Epoch: 19 January)

Event Time Altitude Azimuth Distance (km) Brightness Sun altitude
Exits shadow 05:15:46 19° 69° (ENE) 1,378 9.4 -33.5°
Drops below altitude 10° 05:17:02 10° 72° (ENE) 1,858 10.3 -33.3°
Sets 05:19:14 0° 75° (ENE) 2,722 11.4 -32.9°
